Location: Podia
(1.5569°N, 32.3469°E)
Time: 12:37:00
(UTC+00:00)

Tiros 1 despin weight - Visible Passes

Search period start: 26 September 2020 00:00
Search period end: 06 October 2020 00:00
Orbit: 593 x 642 km, 48.2° (Epoch: 26 September)

Date Brightness Start Highest point End Pass type
(mag) Time Alt. Az. Time Alt. Az. Time Alt. Az.
29 Sep ? 17:49:03 10° NW 17:49:56 15° NW 17:49:56 15° NW visible
30 Sep ? 16:25:42 10° N 16:28:41 17° NE 16:29:42 16° ENE visible
30 Sep ? 18:05:46 10° WNW 18:06:51 16° WNW 18:06:51 16° WNW visible
01 Oct ? 16:40:42 10° NNW 16:45:08 42° NE 16:46:49 30° E visible
01 Oct ? 18:23:51 10° W 18:23:59 10° W 18:23:59 10° W visible
02 Oct ? 16:56:51 10° NW 17:01:31 70° SW 17:04:09 25° SSE visible
03 Oct ? 17:14:00 10° WNW 17:17:54 26° SW 17:21:41 11° S visible
05 Oct ? 16:04:50 10° NW 16:09:17 45° SW 16:13:47 10° SSE visible
